Погода в Ивановке

Украина / Киевская область     49°52′09″N   30°24′00″E
темп.,
°C
ветер,
м/с
пор.,
м/с
влажн.,
%
обл.,
%
осадки,
мм/ч
давл.,
гПа
погр.,
м
21 апреля, ср
ср2100:00+7сз358799 0.0 1009213
03:00+6зсз369189 0.1 1010189
06:00+5з3692100 0.1 1010214
09:00+8з4681100 0.6 1012498
12:00+10зсз675975 0.4 10121418
15:00+11з565199 0.5 10131537
18:00+12зюз4554100 0.0 10131383
21:00+8ююз347356 0.0 101561
22 апреля, чт
чт2200:00+7ююз48805 0.0 1015125
03:00+6юз498312 0.0 1016164
06:00+5юз368520 0.0 101697
09:00+11юз5964100 0.0 1017411
12:00+16ююз610485 0.0 10171835
15:00+17ююз7943100 0.0 10162675
18:00+15юз485696 0.0 1015503
21:00+12ю497177 0.1 1015217
23 апреля, пт
пт2300:00+10ю5118022 0.0 1015246
03:00+8ююз389299 0.1 1014156
06:00+7зсз359452 0.2 1015121
09:00+6ссз5687100 0.3 1016449
12:00+6ссз4585100 0.1 1017560
15:00+5сз4788100 0.3 1017597
18:00+6сз3581100 2.0 1016569
21:00+4юз348724 2.0 101766
24 апреля, сб
сб2400:00+3з48880 0.1 1016158
03:00+1з49880 0.1 1016188
06:00+1зюз41190100 0.0 1016269
09:00+3з589398 0.4 1017605
12:00+5зсз9117479 0.3 10171234
15:00+6зсз8106199 0.8 10171647
18:00+7зсз69545 0.3 10181857
21:00+3з410725 0.3 1019207
25 апреля, вс
вс2500:00+1зюз49815 0.0 1019192
03:000зюз410855 0.0 1019231
06:00−1зюз410905 0.0 1019215
09:00+5зсз576537 0.0 1019746
12:00+8з7952100 0.6 10192112
15:00+9з71042100 1.3 10182447
18:00+8сз785220 0.1 10181771
21:00+3з367019 0.1 1019112